TIANQI-14 (48864 NORAD) Tracking and Keplerian Element Data

This shows tracking and keplerian element data for the satellite.

Feedback or suggestion? Click here.




ElementValue
Catalog48864
NameTIANQI-14
Epoch Orbit648
Epoch Day214.70624785
Epoch Year2021
RAAN67.8138
Inclination35.0051
Eccentricity0.0007901
Argument of Perigee305.6501
Mean Anonmoly54.3468
Mean Motion14.91408515
Decay Rate2.53E-06
L11 48864U 21055E 21214.70624785 .00000253 00000-0 27534-4 0 9997
L22 48864 35.0051 67.8138 0007901 305.6501 54.3468 14.91408515 6482

Live tracking and technical data element details for TIANQI-14 (NORAD 48864). TIANQI-14 can be tracked NOW for your location showing map with azimuth and elevation plus other details from your city location.

Track the satellite on the map from your city or location and see movement details for azimuth, elevation, latitude, longitude, range, height, and movement on the map or in text.







IsCatalogInMostPopularTable: catalog: 48864, numindb: 10
Update: records affected: 1



GetName: 48864 TIANQI-14

Hit Count: updated at: Tue, 03 Aug 2021 21:02:49 GMT